sat.trackr.live / text

‹ back to catalog

STARLINK-1856

NORAD 47143 · 2020-088X

PAYLOAD ACTIVE UNKNOWN

§ Identity

Operator
Country
US
Launch date
2020-11-25
Launch site
AFETR
Launch vehicle
Mass (kg)
RCS (m²)

Purposes: comms

External: N2YO · Heavens-Above · Gunter

§ Orbital elements

Epoch: 2026-09-20T06:00:02.000160Z

Period
90.01 min
Inclination
53.0346°
Eccentricity
0.0008002
Mean motion
15.99888469 rev/d
Perigee alt
269.4 km
Apogee alt
280.1 km
Semi-major
6,652.9 km
B*
8.7442e-4
RAAN
30.1162°
Arg perigee
325.7951°
Mean anomaly
1.4132°
Rev number
602

§ Raw data

STARLINK-18561 47143U 20088X   26263.25002315  .00454878  10007-3  87442-3 0  99992 47143  53.0346  30.1162 0008002 325.7951   1.4132 15.99888469  6023

JSON: /api/v1/satellites/47143 · /tle

For live sub-satellite position, see the globe view (requires WebGL).

§ Visibility from observer

Set your observer location to see the next 7 days of passes ≥ 10°. The values pass through the URL so the page stays shareable.

No JS? Fill the form by hand. The geolocation button needs JavaScript.